FW9474 Weather Reports


Display with metric or nautical units.
time (UTC)temp
F
wind
direction
speed
MPH
gust
MPH
rain 1hr
in
rain 24hr
in
rain mn
in
humidity
%
barometer
mb
20260906074536 69 0 0.0 0.0 0.00 0.04 0.00 99 1012.6
20260906073048 69 0 0.0 0.0 0.00 0.04 0.00 99 1012.4
20260906071533 69 0 0.0 0.0 0.00 0.04 0.00 99 1012.6
20260906070039 69 0 0.0 0.0 0.00 0.04 0.00 99 1012.6
20260906064533 69 0 0.0 0.0 0.00 0.04 0.00 99 1012.7
20260906063034 69 0 0.0 0.0 0.00 0.04 0.00 99 1012.7
20260906061535 70 0 0.0 0.0 0.00 0.04 0.00 99 1013.0
20260906060032 70 0 0.0 0.0 0.00 0.04 0.00 99 1013.3
20260906054532 70 0 0.0 0.0 0.00 0.04 0.00 99 1013.7
20260906053038 70 0 0.0 0.0 0.00 0.04 0.00 99 1013.9
20260906051535 70 0 0.0 0.0 0.00 0.04 0.00 99 1013.8
20260906050038 70 0 0.0 0.0 0.00 0.04 0.00 99 1013.9
20260906044536 70 0 0.0 0.0 0.00 0.04 0.00 99 1014.0
20260906043044 70 0 0.0 0.0 0.00 0.04 0.00 99 1013.8
20260906041534 70 0 0.0 0.0 0.00 0.04 0.00 99 1013.8
20260906040036 70 194 0.0 3.0 0.00 0.04 0.00 99 1014.1
20260906034534 71 217 1.0 5.0 0.00 0.04 0.04 98 1014.2
20260906033034 71 0 0.0 0.0 0.00 0.04 0.04 98 1014.0
20260906031533 71 0 0.0 3.0 0.00 0.04 0.04 99 1014.0
20260906030033 71 0 0.0 1.0 0.00 0.04 0.04 99 1013.9
20260906024537 71 0 1.0 5.0 0.00 0.04 0.04 98 1013.8
20260906023037 71 231 0.0 3.0 0.00 0.04 0.04 98 1014.0
20260906021535 72 0 0.0 1.0 0.00 0.04 0.04 98 1013.7
20260906020032 72 0 0.0 3.0 0.00 0.04 0.04 98 1013.8
20260906014544 72 189 2.0 5.0 0.00 0.04 0.04 98 1013.7
20260906013036 72 0 0.0 0.0 0.00 0.04 0.04 97 1013.3
20260906011544 72 0 0.0 0.0 0.00 0.04 0.04 97 1013.4
20260906010034 72 0 0.0 0.0 0.00 0.04 0.04 97 1013.2
20260906004533 72 0 0.0 0.0 0.00 0.04 0.04 97 1013.0
20260906003035 73 0 0.0 0.0 0.00 0.04 0.04 97 1012.8
20260906001534 73 27 1.0 3.0 0.00 0.04 0.04 96 1012.8
20260906000038 73 0 0.0 0.0 0.00 0.04 0.04 96 1012.9
20260905234543 74 0 0.0 0.0 0.00 0.04 0.04 95 1012.8
20260905233035 74 0 0.0 0.0 0.00 0.04 0.04 94 1013.0
20260905231535 75 0 0.0 0.0 0.00 0.04 0.04 95 1012.8
20260905230041 75 0 0.0 4.0 0.00 0.04 0.04 93 1012.5
20260905224538 75 0 0.0 3.0 0.00 0.04 0.04 91 1012.6
20260905223038 75 223 1.0 4.0 0.00 0.04 0.04 92 1012.5
20260905221536 75 202 0.0 1.0 0.00 0.04 0.04 91 1012.5
20260905220035 74 0 0.0 4.0 0.00 0.04 0.04 93 1012.8
20260905214534 75 240 3.0 5.0 0.00 0.04 0.04 91 1012.9
20260905213034 75 0 0.0 6.0 0.00 0.04 0.04 91 1013.0
20260905211609 74 355 5.0 8.0 0.00 0.04 0.04 92 1013.0
20260905210034 74 124 0.0 3.0 0.00 0.04 0.04 93 1013.8
20260905204535 73 55 2.0 5.0 0.00 0.04 0.04 95 1013.5
20260905203037 72 38 6.0 10.0 0.00 0.04 0.04 95 1013.5
20260905201537 72 51 0.0 6.0 0.00 0.04 0.04 93 1013.2
20260905200045 72 11 2.0 8.0 0.01 0.04 0.04 91 1014.0
20260905194534 74 0 0.0 3.0 0.04 0.04 0.04 91 1014.1
20260905193038 75 75 4.0 15.0 0.04 0.04 0.04 90 1014.7
20260905191537 75 55 4.0 11.0 0.04 0.04 0.04 92 1014.1
20260905190046 77 35 11.0 19.0 0.02 0.02 0.02 86 1013.7
20260905184550 82 34 10.0 21.0 0.00 0.00 0.00 69 1013.8
20260905183033 83 22 5.0 25.0 0.00 0.00 0.00 66 1014.1
20260905181533 90 32 13.0 24.0 0.00 0.00 0.00 55 1013.9
20260905180035 93 93 0.0 8.0 0.00 0.00 0.00 55 1013.6
20260905174533 94 0 1.0 5.0 0.00 0.00 0.00 54 1013.9
20260905173035 93 0 0.0 8.0 0.00 0.00 0.00 56 1013.7
20260905171536 93 232 4.0 8.0 0.00 0.00 0.00 57 1013.6
20260905170032 92 184 3.0 8.0 0.00 0.00 0.00 56 1014.0
20260905164538 92 197 3.0 6.0 0.00 0.00 0.00 59 1014.4
20260905163036 92 248 1.0 8.0 0.00 0.00 0.00 63 1014.6
20260905161537 91 197 2.0 7.0 0.00 0.00 0.00 62 1014.9
20260905160035 90 191 1.0 4.0 0.00 0.00 0.00 64 1014.9
20260905154533 89 190 2.0 4.0 0.00 0.00 0.00 66 1015.1
20260905153049 88 0 1.0 5.0 0.00 0.00 0.00 68 1015.3
20260905151540 87 0 0.0 4.0 0.00 0.00 0.00 71 1015.4
20260905150033 86 0 0.0 3.0 0.00 0.00 0.00 74 1015.4
20260905144534 85 0 0.0 2.0 0.00 0.00 0.00 75 1015.5
20260905143038 84 0 0.0 2.0 0.00 0.00 0.00 77 1015.6
20260905141536 83 0 1.0 3.0 0.00 0.00 0.00 80 1015.6
20260905140034 83 0 0.0 0.0 0.00 0.00 0.00 81 1015.7
20260905134533 81 0 0.0 0.0 0.00 0.00 0.00 83 1015.9
20260905133036 82 0 0.0 0.0 0.00 0.00 0.00 83 1015.9
20260905131548 79 0 0.0 0.0 0.00 0.00 0.00 86 1015.8
20260905130040 78 0 0.0 0.0 0.00 0.00 0.00 89 1015.7
20260905124536 75 0 0.0 0.0 0.00 0.00 0.00 94 1015.7
20260905123035 73 0 0.0 0.0 0.00 0.00 0.00 97 1015.7
20260905121537 72 0 0.0 0.0 0.00 0.00 0.00 97 1015.5
20260905120039 71 0 0.0 0.0 0.00 0.00 0.00 98 1015.5
20260905114534 71 0 0.0 0.0 0.00 0.00 0.00 98 1015.5
20260905113036 70 0 0.0 0.0 0.00 0.00 0.00 98 1015.2
20260905111554 70 0 0.0 0.0 0.00 0.00 0.00 98 1015.1
20260905110035 70 0 0.0 0.0 0.00 0.00 0.00 98 1014.9
20260905104534 70 0 0.0 0.0 0.00 0.00 0.00 98 1014.8
20260905103036 71 0 0.0 0.0 0.00 0.00 0.00 98 1014.8
20260905101534 71 0 0.0 0.0 0.00 0.00 0.00 98 1014.6
20260905100035 71 0 0.0 0.0 0.00 0.00 0.00 98 1014.6
20260905094534 71 0 0.0 0.0 0.00 0.00 0.00 98 1014.4
20260905093036 71 0 0.0 0.0 0.00 0.00 0.00 98 1014.4
20260905091535 71 0 0.0 0.0 0.00 0.00 0.00 98 1014.6
20260905090035 71 0 0.0 0.0 0.00 0.00 0.00 98 1014.5
20260905084536 71 0 0.0 0.0 0.00 0.00 0.00 97 1014.6
20260905083034 71 0 0.0 0.0 0.00 0.00 0.00 97 1014.8
20260905081534 72 0 0.0 0.0 0.00 0.00 0.00 97 1014.7
20260905080033 72 0 0.0 0.0 0.00 0.00 0.00 96 1014.9